Home > Weather > Hilo > Past weeks

Flag for U.S.A. Weather for the Past 2 Weeks in Hilo, Hawaii, U.S.A.

Now
65 °F

Clear.


Feels Like: 65 °F
Forecast: 68 / 82 °F
Wind: 8 mph from Southwest

Location: Hilo International Airport

Current Time: Feb 6, 2016 at 4:24:09 AM

Latest Report: Feb 6, 2016 at 3:53 AM


Visibility: 10 mi

Pressure: 29.98 "Hg

Humidity: 73%

Dew point: 56 °F

Location of HiloLocation

Historic Weather in Hilo — Graph

°F

Hilo Temperature Yesterday

Maximum temperature yesterday: 79 °F (at 2:20 PM)
Minimum temperature yesterday: 66 °F (at 11:53 PM)
Average temperature yesterday: 73 °F

High & Low Weather Summary for the Past Weeks

 TemperatureHumidityPressure
High87 °F (Jan 28, 1:53 PM)94% (Jan 22, 2:43 AM)30.16 "Hg (Jan 22, 2:43 AM)
Low63 °F (Jan 26, 5:53 AM)39% (Jan 30, 11:53 AM)29.93 "Hg (Feb 4, 2:53 PM)
Average73 °F74%30.05 "Hg
* Reported Jan 22 2:03 AM — Feb 6 2:53 AM, Hilo, Weather by CustomWeather, © 2016

Note: Actual official high and low records may vary slightly from our data, if they occured in-between our weather recording intervals... More about our weather records

Advertising

Hilo Weather History for the Previous 24 Hours

 ConditionsComfort  
Time TempWeatherWind HumidityBarometerVisibility
2:53 AM
Sat, Feb 6
65 °FPassing clouds.7 mph73%29.99 "Hg10 mi
1:53 AM65 °FClear.8 mph76%30.01 "Hg10 mi
12:53 AM66 °FClear.8 mph78%30.02 "Hg10 mi
11:53 PM
Fri, Feb 5
66 °FClear.7 mph84%30.03 "Hg10 mi
10:53 PM68 °FClear.3 mph84%30.03 "Hg10 mi
9:53 PM70 °FClear.5 mph87%30.02 "Hg10 mi
8:53 PM71 °FClear.5 mph87%30.01 "Hg10 mi
7:53 PM72 °FClear.5 mph87%30.00 "Hg10 mi
6:53 PM74 °FPassing clouds.3 mph82%29.98 "Hg10 mi
5:53 PM76 °FPartly sunny.6 mph80%29.97 "Hg10 mi
4:53 PM77 °FPartly sunny.9 mph77%29.96 "Hg10 mi
3:53 PM78 °FOvercast.9 mph76%29.95 "Hg10 mi
2:53 PM78 °FMore clouds than sun.13 mph74%29.94 "Hg10 mi
2:20 PM79 °FMore clouds than sun.10 mph74%29.95 "Hg10 mi
1:53 PM77 °FLight rain. More clouds than sun.6 mph79%29.96 "Hg8 mi
12:53 PM76 °FMore clouds than sun.5 mph82%29.98 "Hg7 mi
12:27 PM75 °FLight rain. Mostly cloudy.N/A89%30.00 "Hg7 mi
12:02 PM77 °FCloudy.No wind83%30.01 "Hg7 mi
11:31 AM75 °FCloudy.5 mph89%30.03 "Hg10 mi
10:53 AM76 °FLight rain. Mostly cloudy.6 mph85%30.04 "Hg4 mi
10:10 AM75 °FMore clouds than sun.8 mph83%30.06 "Hg10 mi
9:53 AM74 °FMostly cloudy.8 mph85%30.06 "Hg7 mi
8:56 AM73 °FLight rain. Fog.9 mph89%30.06 "Hg4 mi
8:45 AM73 °FLight rain. Fog.8 mph89%30.06 "Hg2 mi
7:53 AM74 °FCloudy.5 mph82%30.04 "Hg10 mi
6:53 AM71 °FOvercast.6 mph84%30.03 "Hg10 mi
5:53 AM70 °FPassing clouds.8 mph84%30.01 "Hg10 mi
5:08 AM70 °FOvercast.6 mph83%30.01 "Hg10 mi
4:53 AM70 °FMostly cloudy.6 mph84%30.01 "Hg10 mi
Weather by CustomWeather, © 2016

See weather overviewHow to use our weather pages